Zurück zum Katalog

TITAN 4B CENTAUR R/B

AktivMEO
NORAD 25349·ROCKET BODY·🇺🇸 United States

Gestartet Apr 24, 1996 von Cape Canaveral Space Force Station

Loading…

Nächste Überflüge (nächste 24 Stunden)

TLE

AktuellSource: Space-Track

Epoche: Sep 14, 2026, 09:41 UTC

1 25349U 96026B   26257.40416414  .00000026  00000-0  00000+0 0  9999
2 25349   6.8359 350.6583 0445405  39.6114 323.5501  0.99564416 26520

Verfolge TITAN 4B CENTAUR R/B in Echtzeit mit AllMySat

Download on the App Store